OneWeb SL0217

operational
NORAD ID: 48245 Int'l Des: 2021-031 Owner: ONEWEBN Country: UK Constellation: oneweb
LEOCIRCULARPOLARONEWEB_TYPE

关于 OneWeb SL0217

正在加载描述...

实时位置

正在加载3D地球...

即将过境

高度历史

Altitude vs Time

uPlot chart will show altitude changes over time

两行轨道根数

1 48245U 21031AM 26061.11773597 .00000024 00000-0 29044-4 0 9994
2 48245 87.9001 311.0534 0001993 85.3699 274.7658 13.14501994234116
Epoch: Mar 2, 2026 • Age: 33 hours

当前状态

高度 1236.1 km
速度 7.24 km/s
星下点 -87.25°S, 122.24°W
发射日期 Apr 25, 2021
运行时间 4.8 years
类型 internet

技术详情

分类 Payload
质量 148.00 kg
干质量 140.00 kg
总质量 148.00 kg
长度 1.30 m
直径 1.00 m
跨度 5.00 m
形状 Trapezoid+2 pan
制造商 ONEWUS
平台类型 ARROW
阶段状态 In Orbit
所有者/国家 ONEWEBN/UK

大型星座

Loading constellations...